Total_Precipitation_Accumulation
0.03 0.05 0.11 0.15 0.10 0.11 0.09 0.08 0.06 0.06 0.07 0.06 0.03 0.02 0.02 0.02 0.03 0.03 0.02 0.01 0.01 0.01 0.01 0.01 0.01 0.01 0.02 0.03 0.05 0.07 0.08 0.06 0.12 0.13 0.08 0.07 0.06 0.08 0.11 0.10 0.08 0.03 0.02
0.22 0.49 0.74 0.61 0.26 0.10 0.04 0.02 0.03 0.03 0.03 0.02 0.01 0.01 0.01 0.00 0.00 0.00 0.00 0.00 0.00 0.00 0.00 0.00 0.00 0.00 0.00 0.00 0.00 0.02 0.03 0.04 0.05 0.08 0.09 0.05 0.03 0.03 0.04 0.07 0.05 0.03 0.04
0.61 1.11 1.15 0.72 0.34 0.13 0.06 0.02 0.01 0.01 0.01 0.01 0.00 0.00 0.00 0.00 0.00 0.00 0.02 0.02 0.00 0.00 0.00 0.00 0.00 0.00 0.00 0.01 0.01 0.01 0.02 0.03 0.03 0.05 0.09 0.06 0.03 0.03 0.04 0.04 0.03 0.04 0.05
0.56 0.82 0.81 0.47 0.27 0.18 0.16 0.07 0.01 0.01 0.00 0.00 0.00 0.00 0.00 0.00 0.00 0.01 0.02 0.01 0.00 0.00 0.00 0.00 0.00 0.01 0.01 0.02 0.02 0.02 0.04 0.05 0.05 0.06 0.09 0.10 0.10 0.09 0.06 0.04 0.03 0.07 0.06
0.42 0.38 0.33 0.26 0.23 0.22 0.22 0.15 0.07 0.08 0.05 0.03 0.03 0.02 0.01 0.00 0.00 0.00 0.00 0.00 0.00 0.00 0.00 0.00 0.01 0.01 0.01 0.02 0.02 0.03 0.05 0.07 0.09 0.09 0.10 0.13 0.16 0.16 0.13 0.06 0.06 0.09 0.05
0.40 0.33 0.24 0.19 0.18 0.17 0.15 0.12 0.14 0.22 0.17 0.12 0.08 0.09 0.07 0.04 0.02 0.01 0.01 0.00 0.00 0.00 0.00 0.00 0.01 0.01 0.01 0.01 0.02 0.03 0.05 0.07 0.09 0.11 0.12 0.14 0.15 0.16 0.19 0.12 0.09 0.10 0.08
0.44 0.41 0.30 0.21 0.16 0.14 0.10 0.06 0.07 0.13 0.14 0.10 0.09 0.12 0.14 0.11 0.07 0.04 0.02 0.02 0.00 0.00 0.00 0.00 0.00 0.00 0.00 0.01 0.01 0.02 0.03 0.04 0.07 0.09 0.10 0.14 0.15 0.18 0.20 0.16 0.14 0.19 0.21
0.24 0.24 0.18 0.13 0.08 0.06 0.04 0.03 0.02 0.03 0.04 0.05 0.07 0.10 0.13 0.08 0.07 0.12 0.08 0.04 0.02 0.00 0.00 0.00 0.00 0.00 0.00 0.00 0.01 0.01 0.01 0.03 0.06 0.06 0.12 0.14 0.12 0.17 0.17 0.15 0.21 0.26 0.31
0.08 0.10 0.10 0.07 0.06 0.04 0.03 0.03 0.02 0.01 0.01 0.02 0.05 0.08 0.13 0.13 0.11 0.12 0.11 0.08 0.07 0.03 0.02 0.01 0.00 0.00 0.00 0.00 0.01 0.01 0.02 0.04 0.07 0.11 0.15 0.17 0.17 0.18 0.21 0.23 0.28 0.33 0.31
0.07 0.07 0.06 0.06 0.05 0.04 0.04 0.04 0.03 0.02 0.02 0.02 0.02 0.05 0.11 0.15 0.14 0.13 0.14 0.14 0.12 0.08 0.05 0.03 0.02 0.01 0.01 0.01 0.01 0.02 0.04 0.06 0.12 0.16 0.18 0.22 0.22 0.23 0.25 0.26 0.33 0.42 0.41
0.05 0.04 0.04 0.04 0.03 0.03 0.03 0.03 0.03 0.03 0.02 0.02 0.02 0.02 0.05 0.09 0.14 0.17 0.18 0.18 0.16 0.14 0.10 0.08 0.07 0.04 0.02 0.01 0.02 0.04 0.04 0.05 0.08 0.10 0.14 0.19 0.23 0.26 0.28 0.35 0.40 0.44 0.50
0.01 0.01 0.02 0.02 0.02 0.03 0.03 0.03 0.03 0.03 0.03 0.02 0.02 0.01 0.01 0.03 0.06 0.10 0.14 0.16 0.15 0.14 0.13 0.12 0.10 0.06 0.04 0.02 0.02 0.03 0.03 0.04 0.04 0.05 0.09 0.12 0.14 0.20 0.26 0.34 0.39 0.44 0.54
0.00 0.01 0.01 0.02 0.03 0.03 0.03 0.02 0.02 0.01 0.01 0.01 0.01 0.00 0.00 0.00 0.01 0.04 0.07 0.10 0.12 0.13 0.13 0.13 0.10 0.08 0.06 0.04 0.03 0.03 0.03 0.03 0.03 0.04 0.07 0.08 0.11 0.16 0.21 0.30 0.33 0.37 0.52
0.00 0.00 0.01 0.01 0.01 0.01 0.01 0.00 0.00 0.00 0.00 0.00 0.01 0.01 0.01 0.01 0.01 0.01 0.03 0.05 0.08 0.11 0.12 0.12 0.11 0.10 0.08 0.05 0.04 0.02 0.01 0.01 0.03 0.06 0.07 0.08 0.09 0.11 0.11 0.21 0.33 0.39 0.46
0.01 0.01 0.01 0.01 0.01 0.02 0.02 0.02 0.03 0.03 0.03 0.04 0.04 0.05 0.04 0.04 0.04 0.04 0.03 0.04 0.06 0.09 0.12 0.12 0.12 0.11 0.09 0.06 0.05 0.04 0.02 0.01 0.01 0.03 0.06 0.04 0.05 0.06 0.07 0.10 0.22 0.35 0.49
0.04 0.04 0.04 0.03 0.02 0.02 0.02 0.02 0.02 0.02 0.03 0.04 0.04 0.03 0.03 0.03 0.03 0.03 0.03 0.03 0.05 0.09 0.12 0.13 0.13 0.12 0.10 0.07 0.04 0.03 0.02 0.01 0.01 0.03 0.06 0.05 0.02 0.01 0.02 0.03 0.09 0.18 0.32
0.02 0.01 0.01 0.00 0.00 0.00 0.00 0.00 0.00 0.00 0.00 0.01 0.01 0.01 0.01 0.02 0.02 0.03 0.02 0.02 0.04 0.07 0.12 0.14 0.15 0.14 0.14 0.11 0.06 0.04 0.02 0.02 0.01 0.02 0.03 0.03 0.02 0.01 0.00 0.01 0.02 0.05 0.12
0.00 0.00 0.00 0.00 0.00 0.00 0.00 0.00 0.00 0.00 0.00 0.00 0.00 0.00 0.00 0.01 0.02 0.03 0.05 0.05 0.05 0.07 0.10 0.13 0.15 0.17 0.17 0.14 0.09 0.06 0.03 0.02 0.01 0.01 0.01 0.03 0.04 0.03 0.01 0.01 0.01 0.01 0.03
0.00 0.00 0.00 0.00 0.00 0.00 0.00 0.00 0.00 0.00 0.00 0.00 0.00 0.00 0.00 0.01 0.01 0.02 0.05 0.09 0.10 0.10 0.13 0.16 0.18 0.20 0.21 0.16 0.11 0.07 0.04 0.02 0.01 0.01 0.01 0.02 0.03 0.01 0.00 0.01 0.01 0.01 0.01
0.00 0.00 0.00 0.00 0.00 0.00 0.00 0.00 0.00 0.00 0.01 0.01 0.01 0.01 0.01 0.02 0.02 0.02 0.04 0.08 0.12 0.14 0.17 0.22 0.26 0.28 0.27 0.21 0.14 0.11 0.06 0.04 0.03 0.03 0.02 0.01 0.01 0.00 0.01 0.02 0.01 0.00 0.00
0.00 0.00 0.00 0.00 0.00 0.00 0.00 0.01 0.02 0.02 0.02 0.02 0.02 0.02 0.02 0.03 0.03 0.04 0.05 0.07 0.09 0.14 0.21 0.26 0.30 0.35 0.38 0.33 0.20 0.15 0.12 0.08 0.05 0.03 0.02 0.01 0.00 0.00 0.00 0.01 0.01 0.00 0.00
0.00 0.00 0.00 0.00 0.00 0.00 0.02 0.03 0.04 0.03 0.03 0.03 0.03 0.03 0.04 0.03 0.02 0.05 0.07 0.08 0.10 0.14 0.22 0.33 0.41 0.46 0.49 0.47 0.33 0.20 0.16 0.14 0.10 0.05 0.02 0.00 0.00 0.00 0.00 0.00 0.00 0.00 0.00
0.00 0.00 0.00 0.00 0.00 0.01 0.04 0.04 0.03 0.03 0.04 0.05 0.05 0.05 0.05 0.06 0.06 0.07 0.07 0.07 0.09 0.11 0.19 0.36 0.53 0.61 0.61 0.56 0.45 0.29 0.20 0.18 0.15 0.07 0.03 0.01 0.00 0.00 0.00 0.00 0.00 0.00 0.00
0.00 0.00 0.00 0.01 0.02 0.03 0.04 0.04 0.04 0.05 0.07 0.07 0.08 0.08 0.08 0.07 0.07 0.09 0.08 0.07 0.07 0.09 0.18 0.35 0.51 0.63 0.63 0.53 0.42 0.32 0.25 0.23 0.20 0.11 0.04 0.01 0.00 0.00 0.00 0.00 0.00 0.00 0.00
0.00 0.01 0.02 0.04 0.05 0.04 0.04 0.04 0.06 0.10 0.12 0.11 0.11 0.10 0.10 0.09 0.09 0.09 0.09 0.08 0.08 0.09 0.14 0.30 0.51 0.59 0.53 0.42 0.34 0.29 0.27 0.25 0.23 0.14 0.06 0.01 0.00 0.00 0.00 0.00 0.00 0.00 0.00
0.02 0.04 0.07 0.09 0.08 0.08 0.07 0.07 0.11 0.16 0.18 0.17 0.14 0.14 0.13 0.12 0.10 0.10 0.09 0.07 0.06 0.05 0.04 0.11 0.26 0.38 0.35 0.29 0.26 0.24 0.22 0.20 0.16 0.10 0.05 0.01 0.00 0.00 0.00 0.00 0.00 0.00 0.00